Time,TemperatureF,DewpointF,PressureIn,WindDirection,WindDirectionDegrees,WindSpeedMPH,WindSpeedGustMPH,Humidity,HourlyPrecipIn,Conditions,Clouds,dailyrainin,SolarRadiationWatts/m^2,SoftwareType,DateUTC
2013-07-17 00:01:00,75.0,73.0,-100.00,NNW,330,0.0,1.0,94,0.00,,,0.00,0.000000,,2013-07-17 04:01:00,
2013-07-17 00:32:00,74.0,72.0,-100.00,North,354,0.0,0.0,95,0.00,,,-99.99,0.000000,,2013-07-17 04:32:00,
2013-07-17 00:43:00,74.0,72.0,-100.00,North,354,0.0,0.0,95,0.00,,,-99.99,0.000000,,2013-07-17 04:43:00,
2013-07-17 00:53:00,74.0,72.0,-100.00,North,354,0.0,0.0,95,0.00,,,-99.99,0.000000,,2013-07-17 04:53:00,
2013-07-17 01:02:00,74.0,72.0,-100.00,North,354,0.0,0.0,95,0.00,,,-99.99,0.000000,,2013-07-17 05:02:00,
2013-07-17 01:32:00,73.0,71.0,-100.00,NNW,339,0.0,1.0,95,0.00,,,-99.99,0.000000,,2013-07-17 05:32:00,
2013-07-17 01:43:00,73.0,71.0,-100.00,NNW,339,0.0,1.0,95,0.00,,,-99.99,0.000000,,2013-07-17 05:43:00,
2013-07-17 01:52:00,73.0,71.0,-100.00,NNW,339,0.0,1.0,95,0.00,,,-99.99,0.000000,,2013-07-17 05:52:00,
2013-07-17 02:01:00,73.0,71.0,-100.00,NNW,339,0.0,1.0,95,0.00,,,-99.99,0.000000,,2013-07-17 06:01:00,
2013-07-17 02:33:00,73.0,71.0,-100.00,ENE,70,0.0,0.0,95,0.00,,,-99.99,0.000000,,2013-07-17 06:33:00,
2013-07-17 02:43:00,73.0,71.0,-100.00,ENE,70,0.0,0.0,95,0.00,,,-99.99,0.000000,,2013-07-17 06:43:00,
2013-07-17 02:52:00,73.0,71.0,-100.00,ENE,70,0.0,0.0,95,0.00,,,-99.99,0.000000,,2013-07-17 06:52:00,
2013-07-17 03:01:00,73.0,71.0,-100.00,ENE,70,0.0,0.0,95,0.00,,,-99.99,0.000000,,2013-07-17 07:01:00,
2013-07-17 03:32:00,72.0,70.0,-100.00,East,98,0.0,0.0,95,0.00,,,-99.99,0.000000,,2013-07-17 07:32:00,
2013-07-17 03:42:00,72.0,70.0,-100.00,East,98,0.0,0.0,95,0.00,,,-99.99,0.000000,,2013-07-17 07:42:00,
2013-07-17 03:52:00,72.0,70.0,-100.00,East,98,0.0,0.0,95,0.00,,,-99.99,0.000000,,2013-07-17 07:52:00,
2013-07-17 04:01:00,72.0,70.0,-100.00,East,98,0.0,0.0,95,0.00,,,-99.99,0.000000,,2013-07-17 08:01:00,
2013-07-17 04:32:00,71.0,69.0,-100.00,NNW,339,0.0,1.0,95,0.00,,,-99.99,0.000000,,2013-07-17 08:32:00,
2013-07-17 04:43:00,71.0,69.0,-100.00,NNW,339,0.0,1.0,95,0.00,,,-99.99,0.000000,,2013-07-17 08:43:00,
2013-07-17 04:53:00,71.0,69.0,-100.00,NNW,339,0.0,1.0,95,0.00,,,-99.99,0.000000,,2013-07-17 08:53:00,
2013-07-17 05:02:00,71.0,69.0,-100.00,NNW,339,0.0,1.0,95,0.00,,,-99.99,0.000000,,2013-07-17 09:02:00,
2013-07-17 05:22:00,71.0,69.0,-100.00,NNE,27,0.0,0.0,95,0.00,,,-99.99,0.000000,,2013-07-17 09:22:00,
2013-07-17 05:32:00,71.0,69.0,-100.00,NNE,27,0.0,0.0,95,0.00,,,-99.99,0.000000,,2013-07-17 09:32:00,
2013-07-17 05:43:00,71.0,69.0,-100.00,NNE,27,0.0,0.0,95,0.00,,,-99.99,0.000000,,2013-07-17 09:43:00,
2013-07-17 05:52:00,71.0,69.0,-100.00,NNE,27,0.0,0.0,95,0.00,,,-99.99,0.000000,,2013-07-17 09:52:00,
2013-07-17 06:01:00,71.0,69.0,-100.00,NNE,27,0.0,0.0,95,0.00,,,-99.99,0.000000,,2013-07-17 10:01:00,
2013-07-17 06:22:00,72.0,71.0,-100.00,East,85,0.0,1.0,96,0.00,,,-99.99,0.000000,,2013-07-17 10:22:00,
2013-07-17 06:32:00,72.0,71.0,-100.00,East,85,0.0,1.0,96,0.00,,,-99.99,0.000000,,2013-07-17 10:32:00,
2013-07-17 06:43:00,72.0,71.0,-100.00,East,85,0.0,1.0,96,0.00,,,-99.99,0.000000,,2013-07-17 10:43:00,
2013-07-17 06:52:00,72.0,71.0,-100.00,East,85,0.0,1.0,96,0.00,,,-99.99,0.000000,,2013-07-17 10:52:00,
2013-07-17 07:02:00,72.0,71.0,-100.00,East,85,0.0,1.0,96,0.00,,,-99.99,0.000000,,2013-07-17 11:02:00,
2013-07-17 07:32:00,72.0,71.0,-100.00,ENE,74,0.0,0.0,96,0.00,,,-99.99,5.000000,,2013-07-17 11:32:00,
2013-07-17 07:42:00,72.0,71.0,-100.00,ENE,74,0.0,0.0,96,0.00,,,-99.99,5.000000,,2013-07-17 11:42:00,
2013-07-17 07:52:00,72.0,71.0,-100.00,ENE,74,0.0,0.0,96,0.00,,,-99.99,5.000000,,2013-07-17 11:52:00,
2013-07-17 08:01:00,72.0,71.0,-100.00,ENE,74,0.0,0.0,96,0.00,,,-99.99,5.000000,,2013-07-17 12:01:00,
2013-07-17 08:32:00,75.0,74.0,-100.00,WNW,294,0.0,0.0,96,0.00,,,-99.99,79.000000,,2013-07-17 12:32:00,
2013-07-17 08:43:00,75.0,74.0,-100.00,WNW,294,0.0,0.0,96,0.00,,,-99.99,79.000000,,2013-07-17 12:43:00,
2013-07-17 08:53:00,75.0,74.0,-100.00,WNW,294,0.0,0.0,96,0.00,,,-99.99,79.000000,,2013-07-17 12:53:00,
2013-07-17 09:01:00,75.0,74.0,-100.00,WNW,294,0.0,0.0,96,0.00,,,-99.99,79.000000,,2013-07-17 13:01:00,
2013-07-17 09:32:00,82.0,79.0,-100.00,NNE,25,2.0,5.0,91,0.00,,,-99.99,305.000000,,2013-07-17 13:32:00,
2013-07-17 09:43:00,82.0,79.0,-100.00,NNE,25,2.0,5.0,91,0.00,,,-99.99,305.000000,,2013-07-17 13:43:00,
2013-07-17 09:53:00,82.0,79.0,-100.00,NNE,25,2.0,5.0,91,0.00,,,-99.99,305.000000,,2013-07-17 13:53:00,
2013-07-17 10:02:00,82.0,79.0,-100.00,NNE,25,2.0,5.0,91,0.00,,,-99.99,305.000000,,2013-07-17 14:02:00,
2013-07-17 10:32:00,85.0,77.0,-100.00,ENE,58,2.0,7.0,77,0.00,,,-99.99,449.000000,,2013-07-17 14:32:00,
2013-07-17 10:43:00,85.0,77.0,-100.00,ENE,58,2.0,7.0,77,0.00,,,-99.99,449.000000,,2013-07-17 14:43:00,
2013-07-17 10:52:00,85.0,77.0,-100.00,ENE,58,2.0,7.0,77,0.00,,,-99.99,449.000000,,2013-07-17 14:52:00,
2013-07-17 11:02:00,85.0,77.0,-100.00,ENE,58,2.0,7.0,77,0.00,,,-99.99,449.000000,,2013-07-17 15:02:00,
2013-07-17 11:32:00,88.0,76.0,-100.00,North,3,3.0,7.0,67,0.01,,,-99.99,639.000000,,2013-07-17 15:32:00,
2013-07-17 11:43:00,88.0,76.0,-100.00,North,3,3.0,7.0,67,0.01,,,-99.99,639.000000,,2013-07-17 15:43:00,
2013-07-17 11:52:00,88.0,76.0,-100.00,North,3,3.0,7.0,67,0.01,,,-99.99,639.000000,,2013-07-17 15:52:00,
2013-07-17 12:02:00,88.0,76.0,-100.00,North,3,3.0,7.0,67,0.01,,,-99.99,639.000000,,2013-07-17 16:02:00,
2013-07-17 12:33:00,89.0,74.0,-100.00,East,97,4.0,9.0,62,0.00,,,-99.99,674.000000,,2013-07-17 16:33:00,
2013-07-17 12:43:00,89.0,74.0,-100.00,East,97,4.0,9.0,62,0.00,,,-99.99,674.000000,,2013-07-17 16:43:00,
2013-07-17 12:52:00,89.0,74.0,-100.00,East,97,4.0,9.0,62,0.00,,,-99.99,674.000000,,2013-07-17 16:52:00,
2013-07-17 13:02:00,89.0,74.0,-100.00,East,97,4.0,9.0,62,0.00,,,-99.99,674.000000,,2013-07-17 17:02:00,
2013-07-17 13:32:00,91.0,70.0,-100.00,East,81,6.0,10.0,51,0.00,,,0.01,968.000000,,2013-07-17 17:32:00,
2013-07-17 13:43:00,91.0,70.0,-100.00,East,81,6.0,10.0,51,0.00,,,0.01,968.000000,,2013-07-17 17:43:00,
2013-07-17 13:52:00,91.0,70.0,-100.00,East,81,6.0,10.0,51,0.00,,,0.01,968.000000,,2013-07-17 17:52:00,
2013-07-17 14:01:00,91.0,70.0,-100.00,East,81,6.0,10.0,51,0.00,,,0.01,968.000000,,2013-07-17 18:01:00,
2013-07-17 14:32:00,90.0,68.0,-100.00,ESE,102,5.0,11.0,48,0.00,,,0.01,1081.000000,,2013-07-17 18:32:00,
2013-07-17 14:43:00,90.0,68.0,-100.00,ESE,102,5.0,11.0,48,0.00,,,0.01,1081.000000,,2013-07-17 18:43:00,
2013-07-17 14:52:00,90.0,68.0,-100.00,ESE,102,5.0,11.0,48,0.00,,,0.01,1081.000000,,2013-07-17 18:52:00,
2013-07-17 15:01:00,90.0,68.0,-100.00,ESE,102,5.0,11.0,48,0.00,,,0.01,1081.000000,,2013-07-17 19:01:00,
2013-07-17 15:32:00,91.0,69.0,-100.00,ESE,104,6.0,12.0,49,0.00,,,0.01,988.000000,,2013-07-17 19:32:00,
2013-07-17 15:43:00,91.0,69.0,-100.00,ESE,104,6.0,12.0,49,0.00,,,0.01,988.000000,,2013-07-17 19:43:00,
2013-07-17 15:53:00,91.0,69.0,-100.00,ESE,104,6.0,12.0,49,0.00,,,0.01,988.000000,,2013-07-17 19:53:00,
2013-07-17 16:02:00,91.0,69.0,-100.00,ESE,104,6.0,12.0,49,0.00,,,0.01,988.000000,,2013-07-17 20:02:00,
2013-07-17 16:33:00,91.0,69.0,-100.00,SE,131,5.0,11.0,49,0.00,,,0.01,915.000000,,2013-07-17 20:33:00,
2013-07-17 16:43:00,91.0,69.0,-100.00,SE,131,5.0,11.0,49,0.00,,,0.01,915.000000,,2013-07-17 20:43:00,
2013-07-17 16:53:00,91.0,69.0,-100.00,SE,131,5.0,11.0,49,0.00,,,0.01,915.000000,,2013-07-17 20:53:00,
2013-07-17 17:02:00,91.0,69.0,-100.00,SE,131,5.0,11.0,49,0.00,,,0.01,915.000000,,2013-07-17 21:02:00,
2013-07-17 17:32:00,90.0,69.0,-100.00,SSE,150,4.0,12.0,51,0.00,,,0.01,773.000000,,2013-07-17 21:32:00,
2013-07-17 17:42:00,90.0,69.0,-100.00,SSE,150,4.0,12.0,51,0.00,,,0.01,773.000000,,2013-07-17 21:42:00,
2013-07-17 17:53:00,90.0,69.0,-100.00,SSE,150,4.0,12.0,51,0.00,,,0.01,773.000000,,2013-07-17 21:53:00,
2013-07-17 18:01:00,90.0,69.0,-100.00,SSE,150,4.0,12.0,51,0.00,,,0.01,773.000000,,2013-07-17 22:01:00,
2013-07-17 18:32:00,89.0,70.0,-100.00,SE,125,3.0,9.0,53,0.00,,,0.01,559.000000,,2013-07-17 22:32:00,
2013-07-17 18:43:00,89.0,70.0,-100.00,SE,125,3.0,9.0,53,0.00,,,0.01,559.000000,,2013-07-17 22:43:00,
2013-07-17 18:53:00,89.0,70.0,-100.00,SE,125,3.0,9.0,53,0.00,,,0.01,559.000000,,2013-07-17 22:53:00,
2013-07-17 19:02:00,89.0,70.0,-100.00,SE,125,3.0,9.0,53,0.00,,,0.01,559.000000,,2013-07-17 23:02:00,
2013-07-17 19:33:00,87.0,70.0,-100.00,SE,140,3.0,7.0,57,0.00,,,0.01,281.000000,,2013-07-17 23:33:00,
2013-07-17 19:43:00,87.0,70.0,-100.00,SE,140,3.0,7.0,57,0.00,,,0.01,281.000000,,2013-07-17 23:43:00,
2013-07-17 19:52:00,87.0,70.0,-100.00,SE,140,3.0,7.0,57,0.00,,,0.01,281.000000,,2013-07-17 23:52:00,
2013-07-17 20:01:00,87.0,70.0,-100.00,SE,140,3.0,7.0,57,0.00,,,0.01,281.000000,,2013-07-18 00:01:00,
2013-07-17 20:33:00,83.0,70.0,-100.00,SSE,165,2.0,7.0,66,0.00,,,0.01,123.000000,,2013-07-18 00:33:00,
2013-07-17 20:43:00,83.0,70.0,-100.00,SSE,165,2.0,7.0,66,0.00,,,0.01,123.000000,,2013-07-18 00:43:00,
2013-07-17 20:52:00,83.0,70.0,-100.00,SSE,165,2.0,7.0,66,0.00,,,0.01,123.000000,,2013-07-18 00:52:00,
2013-07-17 21:01:00,83.0,70.0,-100.00,SSE,165,2.0,7.0,66,0.00,,,0.01,123.000000,,2013-07-18 01:01:00,
2013-07-17 21:32:00,78.0,73.0,-100.00,SSE,159,0.0,4.0,85,0.00,,,0.01,2.000000,,2013-07-18 01:32:00,
2013-07-17 21:43:00,78.0,73.0,-100.00,SSE,159,0.0,4.0,85,0.00,,,0.01,2.000000,,2013-07-18 01:43:00,
2013-07-17 21:53:00,78.0,73.0,-100.00,SSE,159,0.0,4.0,85,0.00,,,0.01,2.000000,,2013-07-18 01:53:00,
2013-07-17 22:02:00,78.0,73.0,-100.00,SSE,159,0.0,4.0,85,0.00,,,0.01,2.000000,,2013-07-18 02:02:00,
2013-07-17 22:32:00,75.0,72.0,-100.00,NW,311,0.0,2.0,90,0.00,,,0.01,0.000000,,2013-07-18 02:32:00,
2013-07-17 22:43:00,75.0,72.0,-100.00,NW,311,0.0,2.0,90,0.00,,,0.01,0.000000,,2013-07-18 02:43:00,
2013-07-17 22:52:00,75.0,72.0,-100.00,NW,311,0.0,2.0,90,0.00,,,0.01,0.000000,,2013-07-18 02:52:00,
2013-07-17 23:01:00,75.0,72.0,-100.00,NW,311,0.0,2.0,90,0.00,,,0.01,0.000000,,2013-07-18 03:01:00,
2013-07-17 23:32:00,74.0,72.0,-100.00,SSW,199,0.0,0.0,93,0.00,,,0.01,0.000000,,2013-07-18 03:32:00,
2013-07-17 23:43:00,74.0,72.0,-100.00,SSW,199,0.0,0.0,93,0.00,,,0.01,0.000000,,2013-07-18 03:43:00,
2013-07-17 23:52:00,74.0,72.0,-100.00,SSW,199,0.0,0.0,93,0.00,,,0.01,0.000000,,2013-07-18 03:52:00,